weather.gov     
National Weather Service

Terminal Aerodrome Forecast
NWS Homepage
This page is being discontinued on March 12, 2014.
The same data is available at this site. Please update your bookmarks.
Thank you, and we apologize for the inconvenience.
Please send an email to SR-SRH.Webmaster@noaa.gov with any concerns.


Current Version
Previous Version:    01  02  03  04  05  06  07  08  09  10  11  12  13  14  15  16  17  18  19  20  21  22  23  24  25  26  27  28  29  30  
   31  
[Printable]
703
FTUS42 KMLB 240500 RRA
TAFSFB
TAF
KSFB 240544Z 2406/2506 19006KT P6SM FEW030 SCT250
     FM241000 19005KT P6SM OVC008
      TEMPO 2411/2413 5SM BR OVC005
     FM241400 20010KT P6SM BKN015
     FM241700 22011KT P6SM BKN035
     FM250100 20004KT P6SM SCT040 BKN250=


U.S. Dept. of Commerce
NOAA National Weather Service
1325 East West Highway
Silver Spring, MD 20910
E-mail: w-nws.webmaster@noaa.gov
Page last modified: May 16, 2007
NATIONAL WEATHER SERVICE: for Safety, for Work, for Fun - FOR LIFE